VOI282 MMMX-MMPR

Flight info

Callsign VOI282
Flight time 1h 3m
Altitude 32000
Route SEBON3B SEBON UT124 NOTUP NOTUP1B
Aircraft A320/M-SDE3FGHIRWY/LB1

Departure

Time 2026-05-04 00:10
Airport Mexico City Benito Juárez International Airport (MMMX)

Arrival

Time 2026-05-04 01:13
Airport Puerto Vallarta International Airport (MMPR)
Time Latitude Longitude Altitude Speed Heading
2026-05-03 23:56 19.43213 -99.08789 7303 ft 0 kts 160°
2026-05-03 23:58 19.43205 -99.08785 7303 ft 5 kts 160°
2026-05-03 23:59 19.43175 -99.08769 7303 ft 5 kts 143°
2026-05-03 23:59 19.43155 -99.08742 7303 ft 5 kts 118°
2026-05-03 23:59 19.43136 -99.08704 7303 ft 7 kts 118°
2026-05-03 23:59 19.43116 -99.08654 7303 ft 8 kts 92°
2026-05-04 00:00 19.43144 -99.08599 7303 ft 9 kts 59°
2026-05-04 00:00 19.43183 -99.08529 7303 ft 15 kts 60°
2026-05-04 00:00 19.43236 -99.08434 7303 ft 16 kts 59°
2026-05-04 00:00 19.43290 -99.08336 7303 ft 15 kts 58°
2026-05-04 00:01 19.43348 -99.08235 7303 ft 17 kts 59°
2026-05-04 00:01 19.43404 -99.08134 7303 ft 15 kts 59°
2026-05-04 00:01 19.43457 -99.08040 7303 ft 15 kts 59°
2026-05-04 00:01 19.43511 -99.07944 7303 ft 18 kts 59°
2026-05-04 00:02 19.43575 -99.07830 7303 ft 17 kts 58°
2026-05-04 00:02 19.43633 -99.07725 7303 ft 16 kts 62°
2026-05-04 00:02 19.43686 -99.07631 7303 ft 14 kts 58°
2026-05-04 00:02 19.43733 -99.07549 7303 ft 12 kts 59°
2026-05-04 00:03 19.43775 -99.07474 7303 ft 11 kts 59°
2026-05-04 00:03 19.43812 -99.07407 7303 ft 11 kts 59°
2026-05-04 00:03 19.43850 -99.07341 7303 ft 11 kts 59°
2026-05-04 00:03 19.43896 -99.07257 7303 ft 15 kts 59°
2026-05-04 00:04 19.43946 -99.07168 7303 ft 13 kts 59°
2026-05-04 00:04 19.43989 -99.07092 7303 ft 12 kts 59°
2026-05-04 00:04 19.44031 -99.07018 7303 ft 11 kts 59°
2026-05-04 00:04 19.44066 -99.06955 7303 ft 9 kts 59°
2026-05-04 00:05 19.44095 -99.06905 7303 ft 7 kts 59°
2026-05-04 00:05 19.44133 -99.06837 7303 ft 13 kts 59°
2026-05-04 00:05 19.44175 -99.06762 7303 ft 11 kts 59°
2026-05-04 00:05 19.44209 -99.06702 7303 ft 9 kts 59°
2026-05-04 00:06 19.44238 -99.06650 7303 ft 7 kts 59°
2026-05-04 00:06 19.44264 -99.06604 7303 ft 9 kts 59°
2026-05-04 00:06 19.44298 -99.06544 7303 ft 10 kts 59°
2026-05-04 00:06 19.44338 -99.06472 7303 ft 12 kts 59°
2026-05-04 00:07 19.44377 -99.06403 7303 ft 11 kts 59°
2026-05-04 00:07 19.44411 -99.06342 7303 ft 8 kts 62°
2026-05-04 00:07 19.44419 -99.06287 7303 ft 7 kts 95°
2026-05-04 00:07 19.44406 -99.06245 7303 ft 6 kts 111°
2026-05-04 00:08 19.44390 -99.06203 7302 ft 6 kts 116°
2026-05-04 00:08 19.44358 -99.06208 7301 ft 5 kts 228°
2026-05-04 00:08 19.44336 -99.06245 7302 ft 0 kts 239°
2026-05-04 00:09 19.44335 -99.06245 7302 ft 1 kts 239°
2026-05-04 00:09 19.44222 -99.06447 7303 ft 67 kts 239°
2026-05-04 00:10 19.43877 -99.07060 7304 ft 124 kts 239°
2026-05-04 00:10 19.43355 -99.07990 7315 ft 168 kts 238°
2026-05-04 00:10 19.42760 -99.09057 8164 ft 162 kts 237°
2026-05-04 00:10 19.42152 -99.10128 8818 ft 177 kts 239°
2026-05-04 00:11 19.41498 -99.11300 9182 ft 195 kts 238°
2026-05-04 00:11 19.40765 -99.12606 9444 ft 218 kts 239°
2026-05-04 00:11 19.39945 -99.14055 9700 ft 240 kts 239°
2026-05-04 00:11 19.39366 -99.15081 9977 ft 248 kts 239°
2026-05-04 00:12 19.38481 -99.16667 10572 ft 253 kts 242°
2026-05-04 00:12 19.37996 -99.18461 11104 ft 258 kts 268°
2026-05-04 00:12 19.38328 -99.20330 11666 ft 263 kts 295°
2026-05-04 00:12 19.39424 -99.21879 12266 ft 266 kts 314°
2026-05-04 00:13 19.40730 -99.23275 12916 ft 267 kts 315°
2026-05-04 00:13 19.42046 -99.24671 13566 ft 268 kts 315°
2026-05-04 00:13 19.43370 -99.26078 14162 ft 270 kts 315°
2026-05-04 00:13 19.44700 -99.27496 14710 ft 273 kts 315°
2026-05-04 00:14 19.46047 -99.28936 15204 ft 277 kts 315°
2026-05-04 00:14 19.47370 -99.30418 15778 ft 278 kts 307°
2026-05-04 00:14 19.48084 -99.32314 16237 ft 285 kts 275°
2026-05-04 00:14 19.47862 -99.34469 16359 ft 306 kts 258°
2026-05-04 00:15 19.47178 -99.36680 16537 ft 323 kts 251°
2026-05-04 00:15 19.46413 -99.38960 16867 ft 336 kts 261°
2026-05-04 00:15 19.46334 -99.41467 17023 ft 348 kts 275°
2026-05-04 00:15 19.46516 -99.44091 17181 ft 363 kts 275°
2026-05-04 00:16 19.46709 -99.46791 17530 ft 371 kts 276°
2026-05-04 00:16 19.46902 -99.49529 17993 ft 374 kts 276°
2026-05-04 00:16 19.47090 -99.52292 18473 ft 378 kts 276°
2026-05-04 00:16 19.47272 -99.55078 18903 ft 381 kts 276°
2026-05-04 00:17 19.47451 -99.57885 19320 ft 383 kts 276°
2026-05-04 00:17 19.47639 -99.60718 19727 ft 386 kts 277°
2026-05-04 00:17 19.48061 -99.63525 20121 ft 387 kts 282°
2026-05-04 00:17 19.48494 -99.66348 20525 ft 390 kts 279°
2026-05-04 00:18 19.48680 -99.69228 20947 ft 393 kts 275°
2026-05-04 00:18 19.48838 -99.72131 21352 ft 395 kts 275°
2026-05-04 00:18 19.49019 -99.75050 21762 ft 398 kts 276°
2026-05-04 00:18 19.49208 -99.77986 22140 ft 400 kts 276°
2026-05-04 00:19 19.49393 -99.80902 22501 ft 403 kts 276°
2026-05-04 00:19 19.49575 -99.83870 22859 ft 405 kts 276°
2026-05-04 00:19 19.49752 -99.86841 23130 ft 399 kts 276°
2026-05-04 00:19 19.49920 -99.89772 23279 ft 402 kts 276°
2026-05-04 00:20 19.50089 -99.92753 23576 ft 407 kts 276°
2026-05-04 00:20 19.50258 -99.95752 23891 ft 409 kts 276°
2026-05-04 00:20 19.50428 -99.98767 24194 ft 411 kts 276°
2026-05-04 00:20 19.50549 -100.00877 24424 ft 412 kts 276°
2026-05-04 00:21 19.50692 -100.03355 24680 ft 413 kts 276°
2026-05-04 00:22 19.50864 -100.06363 25011 ft 415 kts 276°
2026-05-04 00:22 19.51039 -100.09418 25336 ft 416 kts 276°
2026-05-04 00:22 19.51215 -100.12484 25669 ft 417 kts 276°
2026-05-04 00:22 19.51390 -100.15556 26006 ft 418 kts 276°
2026-05-04 00:23 19.51561 -100.18634 26374 ft 418 kts 276°
2026-05-04 00:23 19.51733 -100.21716 26702 ft 419 kts 276°
2026-05-04 00:23 19.51905 -100.24803 27015 ft 421 kts 276°
2026-05-04 00:23 19.52078 -100.27906 27294 ft 422 kts 276°
2026-05-04 00:24 19.52251 -100.31021 27590 ft 424 kts 276°
2026-05-04 00:24 19.52423 -100.34158 27895 ft 427 kts 276°
2026-05-04 00:24 19.52595 -100.37308 28212 ft 428 kts 276°
2026-05-04 00:24 19.52766 -100.40465 28556 ft 429 kts 276°
2026-05-04 00:25 19.52939 -100.43624 28848 ft 430 kts 276°
2026-05-04 00:25 19.53114 -100.46799 29186 ft 432 kts 276°
2026-05-04 00:25 19.53291 -100.49982 29519 ft 434 kts 276°
2026-05-04 00:25 19.53467 -100.53182 29839 ft 436 kts 276°
2026-05-04 00:26 19.53643 -100.56392 30134 ft 437 kts 276°
2026-05-04 00:26 19.53817 -100.59618 30350 ft 439 kts 276°
2026-05-04 00:26 19.53991 -100.62859 30612 ft 441 kts 276°
2026-05-04 00:26 19.54155 -100.65963 30960 ft 440 kts 276°
2026-05-04 00:27 19.54324 -100.69159 31344 ft 438 kts 276°
2026-05-04 00:27 19.54608 -100.72359 31724 ft 435 kts 282°
2026-05-04 00:27 19.55345 -100.75450 31903 ft 432 kts 291°
2026-05-04 00:27 19.56355 -100.78411 31950 ft 422 kts 292°
2026-05-04 00:28 19.58352 -100.84216 31945 ft 416 kts 292°
2026-05-04 00:28 19.60329 -100.89990 31962 ft 416 kts 292°
2026-05-04 00:29 19.62306 -100.95767 31961 ft 416 kts 292°
2026-05-04 00:29 19.64264 -101.01536 31962 ft 416 kts 291°
2026-05-04 00:30 19.66221 -101.07305 31981 ft 416 kts 291°
2026-05-04 00:30 19.68165 -101.13048 31984 ft 416 kts 291°
2026-05-04 00:31 19.69140 -101.15939 32123 ft 416 kts 291°
2026-05-04 00:31 19.70117 -101.18830 32114 ft 416 kts 291°
2026-05-04 00:31 19.72074 -101.24618 32085 ft 416 kts 291°
2026-05-04 00:32 19.73052 -101.27511 31983 ft 416 kts 291°
2026-05-04 00:32 19.74026 -101.30400 31990 ft 416 kts 291°
2026-05-04 00:32 19.75975 -101.36182 32007 ft 416 kts 291°
2026-05-04 00:33 19.78887 -101.44811 32017 ft 414 kts 291°
2026-05-04 00:34 19.80836 -101.50601 32031 ft 413 kts 291°
2026-05-04 00:34 19.82748 -101.56309 32009 ft 413 kts 291°
2026-05-04 00:35 19.84674 -101.62051 32021 ft 412 kts 291°
2026-05-04 00:35 19.86593 -101.67790 32016 ft 412 kts 291°
2026-05-04 00:36 19.88507 -101.73522 32016 ft 411 kts 291°
2026-05-04 00:36 19.90422 -101.79252 32021 ft 411 kts 291°
2026-05-04 00:37 19.92333 -101.84974 32020 ft 410 kts 291°
2026-05-04 00:37 19.94241 -101.90688 31982 ft 410 kts 291°
2026-05-04 00:38 19.96145 -101.96408 31981 ft 410 kts 291°
2026-05-04 00:38 19.98044 -102.02131 31982 ft 411 kts 291°
2026-05-04 00:39 19.99945 -102.07854 31980 ft 411 kts 291°
2026-05-04 00:39 20.01851 -102.13577 31981 ft 411 kts 291°
2026-05-04 00:40 20.03755 -102.19307 31983 ft 411 kts 291°
2026-05-04 00:40 20.05651 -102.25038 31971 ft 410 kts 291°
2026-05-04 00:41 20.07535 -102.30749 31972 ft 409 kts 291°
2026-05-04 00:41 20.09418 -102.36449 31966 ft 408 kts 291°
2026-05-04 00:42 20.11297 -102.42135 31962 ft 408 kts 291°
2026-05-04 00:42 20.13175 -102.47827 31958 ft 408 kts 291°
2026-05-04 00:43 20.15047 -102.53521 31958 ft 408 kts 291°
2026-05-04 00:43 20.16906 -102.59183 31936 ft 408 kts 291°
2026-05-04 00:44 20.18778 -102.64891 31944 ft 408 kts 291°
2026-05-04 00:44 20.20898 -102.70474 31943 ft 406 kts 300°
2026-05-04 00:45 20.23646 -102.75732 31943 ft 406 kts 300°
2026-05-04 00:45 20.26384 -102.81001 31930 ft 406 kts 300°
2026-05-04 00:46 20.29102 -102.86239 31909 ft 407 kts 300°
2026-05-04 00:46 20.31844 -102.91512 31916 ft 407 kts 300°
2026-05-04 00:47 20.34588 -102.96802 31940 ft 407 kts 299°
2026-05-04 00:47 20.37322 -103.02087 31940 ft 407 kts 299°
2026-05-04 00:48 20.40053 -103.07367 31930 ft 406 kts 299°
2026-05-04 00:48 20.42762 -103.12596 32059 ft 405 kts 299°
2026-05-04 00:49 20.45481 -103.17861 32088 ft 405 kts 299°
2026-05-04 00:49 20.48201 -103.23133 32125 ft 406 kts 299°
2026-05-04 00:50 20.50930 -103.28418 32128 ft 407 kts 299°
2026-05-04 00:50 20.53310 -103.33882 32133 ft 407 kts 291°
2026-05-04 00:51 20.55302 -103.39527 32133 ft 407 kts 291°
2026-05-04 00:51 20.57297 -103.45147 31863 ft 398 kts 291°
2026-05-04 00:51 20.58267 -103.47880 31590 ft 390 kts 291°
2026-05-04 00:52 20.59223 -103.50576 31332 ft 387 kts 291°
2026-05-04 00:52 20.60170 -103.53255 31073 ft 385 kts 291°
2026-05-04 00:52 20.61103 -103.55896 30902 ft 375 kts 291°
2026-05-04 00:52 20.62019 -103.58492 30511 ft 373 kts 291°
2026-05-04 00:53 20.62930 -103.61080 30100 ft 372 kts 291°
2026-05-04 00:53 20.63837 -103.63662 29647 ft 370 kts 291°
2026-05-04 00:53 20.64739 -103.66223 29250 ft 367 kts 291°
2026-05-04 00:53 20.65634 -103.68764 28877 ft 365 kts 291°
2026-05-04 00:54 20.66524 -103.71288 28515 ft 361 kts 292°
2026-05-04 00:54 20.67406 -103.73791 28147 ft 358 kts 292°
2026-05-04 00:54 20.68275 -103.76270 27786 ft 355 kts 291°
2026-05-04 00:54 20.69137 -103.78737 27401 ft 353 kts 292°
2026-05-04 00:55 20.69997 -103.81190 27018 ft 351 kts 292°
2026-05-04 00:55 20.70855 -103.83623 26624 ft 350 kts 292°
2026-05-04 00:55 20.71713 -103.86047 26225 ft 348 kts 292°
2026-05-04 00:55 20.72565 -103.88463 25838 ft 346 kts 292°
2026-05-04 00:56 20.73125 -103.90056 25564 ft 345 kts 292°
2026-05-04 00:56 20.74236 -103.93232 25042 ft 344 kts 292°
2026-05-04 00:56 20.74801 -103.94847 24762 ft 344 kts 292°
2026-05-04 00:56 20.75914 -103.98019 24203 ft 344 kts 292°
2026-05-04 00:57 20.76756 -104.00418 23783 ft 344 kts 292°
2026-05-04 00:57 20.77322 -104.02034 23495 ft 344 kts 292°
2026-05-04 00:57 20.78161 -104.04439 23012 ft 344 kts 292°
2026-05-04 00:57 20.78985 -104.06794 22588 ft 342 kts 292°
2026-05-04 00:58 20.79814 -104.09170 22178 ft 340 kts 292°
2026-05-04 00:58 20.80641 -104.11538 21750 ft 339 kts 291°
2026-05-04 00:58 20.81463 -104.13897 21320 ft 338 kts 291°
2026-05-04 00:58 20.82283 -104.16250 20898 ft 337 kts 291°
2026-05-04 00:59 20.83102 -104.18600 20464 ft 337 kts 292°
2026-05-04 00:59 20.83914 -104.20929 20104 ft 333 kts 292°
2026-05-04 00:59 20.84691 -104.23244 19974 ft 330 kts 287°
2026-05-04 00:59 20.85060 -104.25684 19993 ft 337 kts 273°
2026-05-04 01:00 20.84891 -104.28179 19652 ft 336 kts 263°
2026-05-04 01:00 20.84499 -104.30689 18640 ft 350 kts 262°
2026-05-04 01:00 20.84072 -104.33298 17709 ft 361 kts 261°
2026-05-04 01:00 20.83636 -104.35912 17417 ft 353 kts 261°
2026-05-04 01:01 20.83207 -104.38475 17062 ft 348 kts 261°
2026-05-04 01:01 20.82787 -104.41012 16584 ft 345 kts 261°
2026-05-04 01:01 20.82375 -104.43526 16167 ft 342 kts 261°
2026-05-04 01:01 20.82245 -104.46048 15787 ft 337 kts 275°
2026-05-04 01:02 20.82509 -104.48532 15329 ft 336 kts 277°
2026-05-04 01:02 20.82780 -104.50998 15031 ft 330 kts 276°
2026-05-04 01:02 20.83044 -104.53412 14703 ft 326 kts 276°
2026-05-04 01:02 20.83305 -104.55814 14236 ft 327 kts 276°
2026-05-04 01:03 20.83566 -104.58228 13772 ft 326 kts 276°
2026-05-04 01:03 20.83823 -104.60613 13297 ft 320 kts 276°
2026-05-04 01:03 20.84075 -104.62942 12830 ft 312 kts 276°
2026-05-04 01:03 20.84327 -104.65248 12366 ft 313 kts 276°
2026-05-04 01:04 20.84581 -104.67564 11904 ft 314 kts 276°
2026-05-04 01:04 20.84830 -104.69869 11630 ft 308 kts 276°
2026-05-04 01:04 20.85070 -104.72097 11463 ft 295 kts 276°
2026-05-04 01:04 20.85300 -104.74250 11127 ft 287 kts 275°
2026-05-04 01:05 20.85526 -104.76335 10696 ft 285 kts 276°
2026-05-04 01:05 20.85753 -104.78424 10305 ft 282 kts 276°
2026-05-04 01:05 20.85976 -104.80493 9928 ft 279 kts 275°
2026-05-04 01:05 20.86196 -104.82559 9390 ft 280 kts 276°
2026-05-04 01:06 20.86414 -104.84609 9079 ft 273 kts 276°
2026-05-04 01:06 20.86630 -104.86634 9034 ft 277 kts 276°
2026-05-04 01:06 20.86851 -104.88687 9034 ft 278 kts 276°
2026-05-04 01:06 20.87071 -104.90755 9039 ft 281 kts 277°
2026-05-04 01:07 20.87291 -104.92836 9038 ft 283 kts 276°
2026-05-04 01:07 20.87512 -104.94913 8825 ft 278 kts 276°
2026-05-04 01:07 20.87733 -104.96962 8291 ft 275 kts 276°
2026-05-04 01:07 20.87951 -104.98990 7691 ft 275 kts 277°
2026-05-04 01:08 20.88065 -105.01014 7123 ft 273 kts 263°
2026-05-04 01:08 20.87476 -105.02912 6641 ft 271 kts 240°
2026-05-04 01:08 20.86272 -105.04466 6041 ft 273 kts 229°
2026-05-04 01:08 20.84977 -105.05952 5459 ft 273 kts 228°
2026-05-04 01:09 20.83682 -105.07433 4908 ft 271 kts 227°
2026-05-04 01:09 20.82398 -105.08901 4374 ft 269 kts 227°
2026-05-04 01:09 20.81128 -105.10355 3876 ft 267 kts 227°
2026-05-04 01:09 20.79867 -105.11801 3382 ft 263 kts 229°
2026-05-04 01:10 20.78647 -105.13201 2706 ft 251 kts 228°
2026-05-04 01:10 20.77503 -105.14514 2459 ft 233 kts 228°
2026-05-04 01:10 20.76437 -105.15736 2186 ft 218 kts 227°
2026-05-04 01:10 20.75433 -105.16886 1926 ft 206 kts 227°
2026-05-04 01:11 20.74474 -105.17984 1665 ft 200 kts 227°
2026-05-04 01:11 20.73554 -105.19041 1418 ft 187 kts 228°
2026-05-04 01:11 20.72716 -105.20002 1191 ft 165 kts 228°
2026-05-04 01:11 20.71975 -105.20852 952 ft 151 kts 228°
2026-05-04 01:12 20.71277 -105.21653 748 ft 144 kts 227°
2026-05-04 01:12 20.70609 -105.22428 544 ft 140 kts 228°
2026-05-04 01:12 20.69949 -105.23184 339 ft 139 kts 226°
2026-05-04 01:12 20.69291 -105.23939 175 ft 139 kts 227°
2026-05-04 01:13 20.68653 -105.24677 38 ft 124 kts 225°
2026-05-04 01:13 20.68154 -105.25250 30 ft 81 kts 227°
2026-05-04 01:13 20.67884 -105.25556 31 ft 32 kts 218°
2026-05-04 01:13 20.67789 -105.25614 29 ft 14 kts 204°
2026-05-04 01:14 20.67686 -105.25652 29 ft 17 kts 197°
2026-05-04 01:14 20.67613 -105.25617 29 ft 15 kts 66°
2026-05-04 01:14 20.67688 -105.25526 29 ft 17 kts 46°
2026-05-04 01:14 20.67775 -105.25426 29 ft 19 kts 47°
2026-05-04 01:15 20.67870 -105.25314 29 ft 21 kts 47°
2026-05-04 01:15 20.67977 -105.25193 29 ft 24 kts 48°
2026-05-04 01:15 20.68067 -105.25090 29 ft 13 kts 44°
2026-05-04 01:15 20.68062 -105.25016 29 ft 12 kts 151°
2026-05-04 01:16 20.67997 -105.24945 29 ft 15 kts 134°
2026-05-04 01:16 20.67998 -105.24845 29 ft 15 kts 90°
2026-05-04 01:16 20.67928 -105.24775 29 ft 6 kts 172°
2026-05-04 01:16 20.67905 -105.24802 29 ft 6 kts 229°
2026-05-04 01:17 20.67890 -105.24819 29 ft 0 kts 227°